[[{"header":{"parameterUnit":"m.s-1","parameterCategory":1,"la1":30.2991,"la2":30.254,"lo1":-89.0895,"lo2":-89.0444,"dy":0.0017,"dx":0.0017,"nx":28,"ny":28,"refTime":"2025-08-05T03:00:00:Z","depth":0,"parameterNumber":2,"parameterNumberName":"U-component_of_WINDS"},"data":[0,0,0,0,0,0,0,0,0,0,0,0,0,0,0,0,0,0,0,0,0,0,0,0,0,0,0,0,0,0,0,0,0,0,0,0,0,0,0,0,0,0,0,0,0,0,0,0,0,0,0,0,0,0,0,0,0,0,-2.3592,-2.3592,0,-2.3557,-2.3557,-2.3557,-2.349,-2.3489,-2.3488,-2.3487,-2.3453,-2.3453,-2.3453,0,0,0,0,0,0,0,0,0,0,0,0,0,-2.3603,-2.3603,-2.3592,-2.3592,-2.3591,-2.3557,-2.3557,-2.3557,-2.3491,-2.3489,-2.3487,-2.3486,-2.3453,-2.3453,-2.3453,0,0,0,0,0,0,0,0,0,0,0,0,0,-2.3586,-2.3603,-2.3592,-2.3554,-2.3551,-2.3558,-2.3557,-2.3556,-2.3491,-2.3489,-2.3487,-2.3485,-2.3453,-2.3453,-2.3453,-2.3495,0,0,-2.3455,-2.3455,0,0,0,0,0,0,0,0,-2.3587,-2.3586,-2.356,-2.3557,-2.3553,-2.3526,-2.3548,-2.3536,-2.3491,-2.3514,-2.3487,-2.3484,-2.3479,-2.3477,-2.3475,-2.3494,-2.3492,-2.3455,-2.3455,-2.3455,-2.3456,0,0,0,0,0,0,0,-2.3588,-2.3587,-2.3578,-2.356,-2.3555,-2.3539,-2.3535,-2.3546,-2.3508,-2.3512,-2.3507,-2.3503,-2.3476,-2.3475,-2.3474,-2.3492,-2.3455,-2.3455,-2.3456,-2.3456,-2.3541,-2.3543,0,0,0,0,0,0,-2.3595,-2.3588,-2.358,-2.3577,-2.3565,-2.3541,-2.3536,-2.3537,-2.3507,-2.3501,-2.3505,-2.35,-2.3475,-2.3473,-2.3472,-2.3518,-2.3455,-2.3456,-2.3456,-2.3539,-2.3542,-2.3544,0,0,0,0,0,0,-2.3595,-2.3595,-2.3581,-2.3582,-2.3579,-2.3543,-2.3544,-2.3537,-2.3535,-2.3502,-2.3495,-2.351,-2.3473,-2.3472,-2.3489,-2.3516,-2.3456,-2.3456,-2.3537,-2.354,-2.3543,-2.361,0,0,0,0,0,0,-2.3596,-2.3595,-2.3611,-2.3582,-2.3579,-2.3599,-2.3546,-2.3538,-2.3536,-2.3529,-2.3505,-2.3499,-2.3472,-2.3489,-2.349,-2.3515,-2.3457,-2.3535,-2.3539,-2.3542,-2.3605,-2.3615,-2.3623,0,0,0,0,0,-2.3597,-2.3631,-2.3612,-2.3611,-2.3597,-2.36,-2.3598,-2.3565,-2.3538,-2.3553,-2.3532,-2.35,-2.3513,-2.3492,-2.3492,-2.3518,-2.3533,-2.3537,-2.3542,-2.3601,-2.3613,-2.3623,0,0,0,0,0,0,-2.3664,-2.3627,-2.3605,-2.3631,-2.3619,-2.3589,-2.3607,-2.3579,-2.3575,-2.3569,-2.3528,-2.3524,-2.3547,-2.3534,-2.3511,-2.3556,-2.3518,-2.3523,-2.3563,-2.3574,-2.3583,-2.3584,-2.3457,0,0,0,0,0,-2.3682,-2.3688,-2.3655,-2.3682,-2.3677,-2.3643,-2.3644,-2.3619,-2.3605,-2.36,-2.358,-2.3568,-2.3569,-2.3571,-2.3571,-2.3604,-2.3597,-2.3622,-2.3631,-2.3638,-2.3642,-2.3657,-2.3668,-2.3559,-2.3559,-2.3559,0,0,-2.372,-2.37,-2.3706,-2.3695,-2.3683,-2.3689,-2.3639,-2.3649,-2.3653,-2.3601,-2.3616,-2.3602,-2.3586,-2.3611,-2.3622,-2.3602,-2.3671,-2.3644,-2.365,-2.365,-2.3663,-2.3673,-2.3683,-2.3562,-2.3561,-2.3561,0,0,-2.379,-2.3777,-2.3796,-2.3785,-2.3767,-2.3744,-2.3749,-2.3723,-2.3711,-2.3726,-2.3687,-2.3692,-2.3695,-2.3685,-2.368,-2.3747,-2.3717,-2.3748,-2.3795,-2.381,-2.3818,-2.3826,-2.3848,-2.3857,-2.3753,-2.3753,-2.3753,0,-2.3839,-2.3847,-2.3811,-2.3822,-2.3818,-2.3771,-2.3791,-2.3782,-2.3765,-2.3763,-2.3741,-2.3744,-2.373,-2.3751,-2.3768,-2.3766,-2.377,-2.375,-2.382,-2.3827,-2.3833,-2.3854,-2.3863,-2.3757,-2.3757,-2.3756,-2.3756,0,-2.3907,-2.3913,-2.3931,-2.3915,-2.3913,-2.3929,-2.3895,-2.3898,-2.3874,-2.3854,-2.3869,-2.3851,-2.3845,-2.3849,-2.3826,-2.3867,-2.3855,-2.3827,-2.3788,-2.3848,-2.3867,-2.3875,-2.3762,-2.3761,-2.376,-2.3759,0,0,-2.4018,-2.3981,-2.3989,-2.398,-2.3957,-2.3961,-2.3975,-2.3968,-2.3971,-2.3961,-2.3971,-2.3975,-2.3949,-2.3944,-2.3919,-2.3933,-2.3985,-2.3903,-2.3902,-2.3918,-2.4028,-2.4048,-2.4058,-2.3966,-2.3967,-2.3968,-2.4029,0,-2.4083,-2.4103,-2.4071,-2.4098,-2.4103,-2.4058,-2.407,-2.4057,-2.4039,-2.404,-2.402,-2.4023,-2.3989,-2.3986,-2.3997,-2.3976,-2.4007,-2.3972,-2.3974,-2.3975,-2.3978,-2.4068,-2.4089,-2.4147,-2.4036,-2.4038,-2.4038,0,-2.416,-2.4153,-2.4181,-2.4155,-2.4156,-2.4167,-2.4158,-2.416,-2.4145,-2.413,-2.4124,-2.4095,-2.4106,-2.407,-2.4085,-2.4062,-2.4061,-2.4051,-2.4052,-2.405,-2.4009,-2.4067,-2.4165,-2.4173,-2.405,-2.4049,-2.4048,0,-2.4237,-2.4234,-2.425,-2.4245,-2.4215,-2.4224,-2.4212,-2.4195,-2.4193,-2.4185,-2.4183,-2.4178,-2.4175,-2.4172,-2.4142,-2.4118,-2.416,-2.4121,-2.4148,-2.4149,-2.4157,-2.4157,-2.4255,-2.416,-2.416,-2.416,-2.416,0,-2.4311,-2.433,-2.4284,-2.4294,-2.4313,-2.4276,-2.4296,-2.428,-2.4265,-2.4271,-2.4233,-2.424,-2.42,-2.4202,-2.4179,-2.4194,-2.4194,-2.4182,-2.4176,-2.4185,-2.4186,-2.4182,-2.4177,-2.4162,-2.4162,-2.4161,-2.4161,0,-2.4399,-2.437,-2.4384,-2.4355,-2.4348,-2.4363,-2.4338,-2.4346,-2.4325,-2.4333,-2.4333,-2.43,-2.4301,-2.4271,-2.4266,-2.425,-2.4275,-2.4262,-2.428,-2.4275,-2.4303,-2.43,-2.4401,-2.4412,-2.4312,-2.4313,-2.4313,0,-2.4448,-2.4461,-2.4433,-2.4433,-2.4423,-2.4425,-2.4423,-2.4387,-2.4386,-2.4369,-2.4379,-2.4376,-2.4372,-2.4375,-2.4351,-2.4347,-2.4333,-2.4368,-2.4332,-2.434,-2.4331,-2.433,-2.4331,-2.4376,-2.4377,-2.4378,-2.4379,0,-2.4537,-2.4521,-2.4519,-2.4511,-2.4509,-2.4501,-2.4491,-2.4495,-2.4456,-2.4457,-2.4456,-2.4453,-2.4447,-2.4445,-2.4436,-2.4424,-2.4395,-2.4391,-2.4396,-2.4405,-2.4414,-2.4408,-2.4299,-2.4388,-2.4387,-2.4387,-2.4386,-2.4386,-2.4605,-2.4614,-2.4595,-2.4594,-2.4582,-2.4574,-2.4579,-2.4559,-2.4558,-2.455,-2.4529,-2.4532,-2.4516,-2.4501,-2.4491,-2.4493,-2.4475,-2.4484,-2.4486,-2.4488,-2.4493,-2.4415,-2.4492,-2.4491,-2.4491,-2.4491,-2.4491,0,-2.469,-2.4676,-2.4675,-2.4662,-2.4661,-2.4633,-2.4621,-2.4621,-2.4624,-2.4611,-2.4608,-2.4607,-2.4604,-2.458,-2.4575,-2.4581,-2.4567,-2.458,-2.4579,-2.4576,-2.451,-2.4505,-2.4591,-2.4591,-2.4591,-2.4591,-2.4591,-2.4591,-2.4735,-2.4748,-2.473,-2.4737,-2.4723,-2.4725,-2.472,-2.4712,-2.4701,-2.4702,-2.4699,-2.4683,-2.4666,-2.4658,-2.4655,-2.4648,-2.4647,-2.4664,-2.4653,-2.4591,-2.4581,-2.4572,-2.4567,-2.4665,-2.4665,-2.4719,-2.4719,-2.472]},{"header":{"parameterUnit":"m.s-1","parameterCategory":1,"la1":30.2991,"la2":30.254,"lo1":-89.0895,"lo2":-89.0444,"dy":0.0017,"dx":0.0017,"nx":28,"ny":28,"refTime":"2025-08-05T03:00:00:Z","depth":0,"parameterNumber":3,"parameterNumberName":"V-component_of_WINDS"},"data":[0,0,0,0,0,0,0,0,0,0,0,0,0,0,0,0,0,0,0,0,0,0,0,0,0,0,0,0,0,0,0,0,0,0,0,0,0,0,0,0,0,0,0,0,0,0,0,0,0,0,0,0,0,0,0,0,0,0,-0.3828,-0.3829,0,-0.388,-0.3881,-0.3881,-0.393,-0.3931,-0.3932,-0.3932,-0.3986,-0.3986,-0.3987,0,0,0,0,0,0,0,0,0,0,0,0,0,-0.377,-0.3771,-0.3828,-0.3829,-0.3829,-0.388,-0.3881,-0.3881,-0.393,-0.3931,-0.3932,-0.3933,-0.3985,-0.3986,-0.3987,0,0,0,0,0,0,0,0,0,0,0,0,0,-0.3806,-0.3771,-0.3828,-0.386,-0.3863,-0.388,-0.3881,-0.3882,-0.393,-0.3931,-0.3932,-0.3933,-0.3985,-0.3986,-0.3987,-0.3977,0,0,-0.3991,-0.3992,0,0,0,0,0,0,0,0,-0.3804,-0.3808,-0.3854,-0.3858,-0.3861,-0.39,-0.388,-0.3913,-0.393,-0.3905,-0.3932,-0.3933,-0.3956,-0.396,-0.3968,-0.3979,-0.3981,-0.3991,-0.3992,-0.3993,-0.3993,0,0,0,0,0,0,0,-0.3801,-0.3806,-0.3849,-0.3855,-0.3859,-0.3871,-0.3877,-0.3886,-0.3925,-0.3907,-0.3911,-0.3916,-0.3958,-0.3966,-0.3969,-0.3982,-0.3991,-0.3993,-0.3993,-0.3994,-0.3986,-0.3985,0,0,0,0,0,0,-0.3794,-0.3804,-0.3847,-0.385,-0.3834,-0.3872,-0.3878,-0.3887,-0.3925,-0.3931,-0.3915,-0.3918,-0.3964,-0.3968,-0.3971,-0.396,-0.3993,-0.3994,-0.3995,-0.3987,-0.3986,-0.3985,0,0,0,0,0,0,-0.3793,-0.3797,-0.3845,-0.3828,-0.3835,-0.3872,-0.388,-0.3887,-0.3895,-0.3931,-0.3938,-0.3917,-0.3965,-0.397,-0.3975,-0.3963,-0.3994,-0.3996,-0.3988,-0.3987,-0.3985,-0.3939,0,0,0,0,0,0,-0.3791,-0.3797,-0.3793,-0.3827,-0.3836,-0.3847,-0.388,-0.3887,-0.3897,-0.3901,-0.3934,-0.394,-0.3966,-0.3972,-0.3976,-0.3965,-0.3997,-0.3989,-0.3987,-0.3986,-0.3941,-0.3936,-0.3931,0,0,0,0,0,-0.3788,-0.3778,-0.3793,-0.3798,-0.3832,-0.3847,-0.3851,-0.3881,-0.3896,-0.3893,-0.3915,-0.3939,-0.3964,-0.3973,-0.3977,-0.3966,-0.399,-0.3988,-0.3986,-0.3944,-0.3937,-0.3931,0,0,0,0,0,0,-0.3742,-0.3783,-0.38,-0.3801,-0.382,-0.3855,-0.3852,-0.3873,-0.3888,-0.3892,-0.3928,-0.3934,-0.3935,-0.3951,-0.3961,-0.3957,-0.398,-0.3979,-0.3947,-0.394,-0.3935,-0.3931,-0.3998,0,0,0,0,0,-0.3732,-0.374,-0.3776,-0.3773,-0.3782,-0.3815,-0.3822,-0.3843,-0.3865,-0.3873,-0.3896,-0.3916,-0.3928,-0.3935,-0.3948,-0.3944,-0.3951,-0.3939,-0.3933,-0.3929,-0.3927,-0.3925,-0.3919,-0.3978,-0.3978,-0.3978,0,0,-0.3711,-0.3735,-0.3738,-0.3764,-0.3782,-0.3789,-0.3822,-0.3829,-0.3834,-0.3874,-0.388,-0.3898,-0.3922,-0.3922,-0.3923,-0.3935,-0.3913,-0.3926,-0.3922,-0.3923,-0.3922,-0.3916,-0.3911,-0.3976,-0.3976,-0.3977,0,0,-0.3677,-0.3696,-0.3695,-0.3711,-0.3737,-0.3759,-0.3758,-0.379,-0.3803,-0.381,-0.3839,-0.3846,-0.3867,-0.3882,-0.3893,-0.3862,-0.3885,-0.3866,-0.3839,-0.3836,-0.3831,-0.3827,-0.3815,-0.3811,-0.3864,-0.3864,-0.3864,0,-0.3648,-0.366,-0.3692,-0.3697,-0.3707,-0.3743,-0.3742,-0.3756,-0.3784,-0.3791,-0.3804,-0.3829,-0.3848,-0.3851,-0.3844,-0.3851,-0.3851,-0.3862,-0.3829,-0.3826,-0.3822,-0.3812,-0.3807,-0.3861,-0.3862,-0.3862,-0.3862,0,-0.3623,-0.3631,-0.3627,-0.3653,-0.3663,-0.3665,-0.3696,-0.3702,-0.3722,-0.3742,-0.3747,-0.3771,-0.3789,-0.3791,-0.3811,-0.3797,-0.3804,-0.3823,-0.3846,-0.3814,-0.3804,-0.38,-0.3858,-0.3859,-0.3859,-0.386,0,0,-0.3562,-0.3604,-0.3602,-0.3614,-0.3644,-0.3651,-0.3653,-0.3671,-0.3675,-0.3693,-0.3696,-0.3711,-0.3728,-0.374,-0.3762,-0.3759,-0.3732,-0.3778,-0.3779,-0.3768,-0.3717,-0.3702,-0.3697,-0.3747,-0.3746,-0.3746,-0.3715,0,-0.3532,-0.3539,-0.3567,-0.3566,-0.3574,-0.3607,-0.3609,-0.3628,-0.3646,-0.3655,-0.3675,-0.3685,-0.3708,-0.3715,-0.3714,-0.3736,-0.3722,-0.3738,-0.3749,-0.3749,-0.3742,-0.3692,-0.3677,-0.3646,-0.3711,-0.3711,-0.371,0,-0.3499,-0.3514,-0.3513,-0.3542,-0.3546,-0.3548,-0.3565,-0.3573,-0.3594,-0.3608,-0.362,-0.3643,-0.3648,-0.3669,-0.3675,-0.3685,-0.3691,-0.3702,-0.3702,-0.3704,-0.3727,-0.3692,-0.3637,-0.3632,-0.3705,-0.3705,-0.3706,0,-0.3453,-0.3473,-0.3475,-0.3484,-0.3518,-0.3518,-0.3532,-0.3554,-0.3562,-0.3577,-0.3582,-0.3598,-0.3606,-0.3617,-0.3643,-0.3657,-0.3645,-0.367,-0.3656,-0.3655,-0.3652,-0.3652,-0.3597,-0.3656,-0.3657,-0.3657,-0.3657,0,-0.3417,-0.3415,-0.3455,-0.3456,-0.3455,-0.3486,-0.3484,-0.3501,-0.352,-0.3524,-0.3554,-0.3558,-0.3593,-0.36,-0.3621,-0.3622,-0.3626,-0.3636,-0.3642,-0.3633,-0.3632,-0.3637,-0.364,-0.3655,-0.3656,-0.3656,-0.3656,0,-0.3365,-0.3392,-0.3397,-0.3428,-0.3435,-0.3433,-0.3459,-0.3461,-0.3481,-0.3486,-0.3489,-0.352,-0.353,-0.3558,-0.3575,-0.3589,-0.3584,-0.3594,-0.3576,-0.358,-0.3564,-0.3565,-0.3511,-0.3505,-0.3568,-0.3568,-0.3567,0,-0.334,-0.334,-0.337,-0.3375,-0.3388,-0.3396,-0.3404,-0.3435,-0.3442,-0.3465,-0.3463,-0.3476,-0.3487,-0.3501,-0.3525,-0.3538,-0.3549,-0.3529,-0.3551,-0.3542,-0.3548,-0.3547,-0.3547,-0.3524,-0.3523,-0.3523,-0.3522,0,-0.3292,-0.3305,-0.3316,-0.3331,-0.334,-0.3353,-0.3368,-0.337,-0.3404,-0.3411,-0.3421,-0.343,-0.3447,-0.3458,-0.3474,-0.3488,-0.351,-0.3515,-0.3512,-0.3503,-0.3492,-0.3497,-0.3563,-0.3516,-0.3517,-0.3517,-0.3517,-0.3518,-0.3253,-0.3254,-0.3275,-0.3285,-0.3299,-0.3312,-0.3315,-0.3335,-0.3344,-0.336,-0.3378,-0.3386,-0.3405,-0.343,-0.3442,-0.3448,-0.346,-0.3456,-0.3455,-0.3454,-0.3449,-0.3492,-0.3451,-0.3451,-0.3452,-0.3452,-0.3452,0,-0.3206,-0.3221,-0.3231,-0.325,-0.3258,-0.3278,-0.3295,-0.33,-0.3307,-0.3323,-0.3333,-0.3344,-0.3355,-0.3379,-0.3392,-0.3392,-0.3403,-0.3395,-0.3395,-0.3397,-0.3439,-0.3439,-0.3386,-0.3386,-0.3386,-0.3386,-0.3386,-0.3386,-0.3183,-0.3184,-0.3199,-0.3207,-0.3223,-0.3231,-0.3238,-0.325,-0.3263,-0.3274,-0.3283,-0.3299,-0.3318,-0.3332,-0.3342,-0.3349,-0.3352,-0.3341,-0.335,-0.3388,-0.3395,-0.3401,-0.3401,-0.3341,-0.3341,-0.3309,-0.3308,-0.3308]}]]